Falls City, NE

5:05 PM CDT on July 20, 2017 (GMT -0500)
Brenner

Weather History for KFNB - March, 2014

Change the Weather History Date:

Monday, March 3, 2014

  Actual Average Record
Temperature  
Mean Temperature 5 °F -  
Max Temperature 17 °F 48 °F 81 °F (1992)
Min Temperature -7 °F 26 °F -7 °F (2014)
Degree Days  
Heating Degree Days 60    
Moisture  
Dew Point -5 °F    
Average Humidity 59    
Maximum Humidity 75    
Minimum Humidity 47    
Precipitation  
Precipitation 0.00 in - - ()
Sea Level Pressure  
Sea Level Pressure 30.49 in    
Wind  
Wind Speed 7 mph (South)    
Max Wind Speed 16 mph    
Max Gust Speed -    
Visibility 10 miles    
Events      
Averages and records for this station are not official NWS values.
T = Trace of Precipitation, MM = Missing Value Source: NWS Daily Summary

Daily Weather History Graph

Daily Weather History Graph

Search for Another Location

Airport or City:

Trip Planner

Search our weather history database for the weather conditions in past years. The results will help you decide how hot, cold, wet, or windy it might be!

Date:

Astronomy

Mar. 03, 2014 Rise Set
Actual Time 6:52 AM CST 6:16 PM CST
Civil Twilight 6:25 AM CST 6:43 PM CST
Nautical Twilight 5:54 AM CST 7:14 PM CST
Astronomical Twilight 5:22 AM CST 7:46 PM CST
Moon 8:01 AM CST (3/3) 9:20 PM CST (3/3)
Length of Visible Light 12h 18m
Length of Day
11h 23m
Waxing Crescent, 8% of the Moon is Illuminated
Mar 3
Waxing Crescent
Mar 8
First Quarter
Mar 16
Full
Mar 23
Last Quarter
Mar 30
New

Hourly Weather History & Observations

Time (CST) Temp. Windchill Dew Point Humidity Pressure Visibility Wind Dir Wind Speed Gust Speed Precip Events Conditions
12:53 AM -2.9 °F -15.0 °F -13.0 °F 62% 30.66 in 10.0 mi North 5.8 mph - N/A   Clear
1:53 AM -4.0 °F -17.8 °F -13.0 °F 65% 30.64 in 10.0 mi NNW 6.9 mph - N/A   Clear
2:53 AM -5.1 °F -17.6 °F -13.0 °F 69% 30.62 in 10.0 mi NNW 5.8 mph - N/A   Clear
3:53 AM -5.1 °F -17.6 °F -14.1 °F 65% 30.62 in 10.0 mi NW 5.8 mph - N/A   Clear
4:53 AM -6.0 °F -16.9 °F -13.0 °F 72% 30.61 in 10.0 mi NNW 4.6 mph - N/A   Clear
5:53 AM -6.0 °F - -13.0 °F 72% 30.61 in 10.0 mi Calm Calm - N/A   Clear
6:53 AM -7.1 °F -15.9 °F -13.0 °F 75% 30.60 in 10.0 mi West 3.5 mph - N/A   Clear
7:53 AM -4.0 °F -14.6 °F -11.9 °F 69% 30.60 in 10.0 mi WNW 4.6 mph - N/A   Clear
8:53 AM -0.0 °F - -9.9 °F 63% 30.60 in 10.0 mi Calm Calm - N/A   Clear
9:53 AM 1.9 °F - -8.0 °F 63% 30.60 in 10.0 mi Calm Calm - N/A   Clear
10:53 AM 5.0 °F -8.1 °F -7.1 °F 58% 30.59 in 10.0 mi SE 8.1 mph - 0.00 in   Clear
11:53 AM 8.1 °F -4.3 °F -2.9 °F 61% 30.56 in 10.0 mi SSE 8.1 mph - N/A   Clear
12:53 PM 10.0 °F -1.9 °F -2.9 °F 56% 30.53 in 10.0 mi South 8.1 mph - N/A   Clear
1:53 PM 12.9 °F 0.7 °F -2.0 °F 51% 30.49 in 10.0 mi SSW 9.2 mph - N/A   Clear
2:53 PM 15.1 °F 1.1 °F -2.0 °F 47% 30.44 in 10.0 mi SSE 12.7 mph - N/A   Clear
3:53 PM 16.0 °F 2.9 °F -0.9 °F 47% 30.40 in 10.0 mi SSE 11.5 mph - N/A   Clear
4:53 PM 16.0 °F 2.3 °F -0.9 °F 47% 30.38 in 10.0 mi SSE 12.7 mph - N/A   Clear
5:53 PM 16.0 °F 0.6 °F 1.9 °F 54% 30.32 in 10.0 mi SSE 16.1 mph - N/A   Overcast
6:53 PM 16.0 °F 2.9 °F 1.0 °F 52% 30.32 in 10.0 mi SSE 11.5 mph - N/A   Clear
7:53 PM 17.1 °F 3.6 °F 1.0 °F 50% 30.31 in 10.0 mi SSE 12.7 mph - N/A   Partly Cloudy
8:53 PM 16.0 °F 4.4 °F 1.9 °F 54% 30.33 in 10.0 mi South 9.2 mph - N/A   Partly Cloudy
9:53 PM 17.1 °F 5.0 °F 3.0 °F 54% 30.31 in 10.0 mi SSE 10.4 mph - N/A   Clear
10:53 PM 16.0 °F 5.3 °F 3.9 °F 59% 30.29 in 10.0 mi South 8.1 mph - N/A   Clear
11:53 PM 16.0 °F 7.4 °F 3.9 °F 59% 30.28 in 10.0 mi South 5.8 mph - N/A   Clear